"read_dt","SO2 (ppb)","flags","PMT voltage (V)","lamp voltage (V)","lamp intensity (Hz)","internal temp (C)","react chamber temp (C)","sample flow (l/min)","pres (mmHg)","SO2 bkg (ppb)","SO2 coefficient"
2016-01-30 00:00:00,1869E-3,5C000400,-0724,0834,12040,021.4,045.2,0.267,753.7,01.17,0.508
2016-01-30 00:01:00,1924E-3,5C000400,-0724,0834,12144,021.4,045.3,0.267,753.4,01.17,0.508
2016-01-30 00:02:00,1953E-3,5C000400,-0724,0834,12124,021.4,045.3,0.267,753.8,01.17,0.508
2016-01-30 00:03:00,1961E-3,5C000400,-0724,0834,12120,021.4,045.3,0.267,753.6,01.17,0.508
2016-01-30 00:04:00,2057E-3,5C000400,-0724,0834,12090,021.4,045.3,0.267,753.8,01.17,0.508
2016-01-30 00:05:00,1858E-3,5C000400,-0724,0834,12110,021.4,045.3,0.267,753.6,01.17,0.508
2016-01-30 00:06:00,1879E-3,5C000400,-0724,0834,12109,021.4,045.2,0.267,753.7,01.17,0.508
2016-01-30 00:07:00,1842E-3,5C000400,-0724,0834,12260,021.4,045.2,0.267,753.8,01.17,0.508
2016-01-30 00:08:00,1970E-3,5C000400,-0724,0834,12241,021.4,045.2,0.267,753.6,01.17,0.508
2016-01-30 00:09:00,1901E-3,5C000400,-0724,0834,12161,021.4,045.3,0.267,753.6,01.17,0.508
2016-01-30 00:10:00,1996E-3,5C000400,-0724,0834,12097,021.4,045.3,0.267,753.8,01.17,0.508
2016-01-30 00:11:00,2015E-3,5C000400,-0724,0834,12148,021.4,045.3,0.267,753.6,01.17,0.508
2016-01-30 00:12:00,1979E-3,5C000400,-0724,0834,12234,021.4,045.2,0.267,753.5,01.17,0.508
2016-01-30 00:13:00,1993E-3,5C000400,-0724,0834,11992,021.4,045.3,0.267,753.5,01.17,0.508
2016-01-30 00:14:00,1925E-3,5C000400,-0724,0834,12253,021.3,045.3,0.267,753.6,01.17,0.508
2016-01-30 00:15:00,1796E-3,5C000400,-0724,0834,12175,021.3,045.3,0.267,753.7,01.17,0.508
2016-01-30 00:16:00,1996E-3,5C000400,-0724,0834,12208,021.4,045.3,0.267,753.6,01.17,0.508
2016-01-30 00:17:00,1963E-3,5C000400,-0724,0834,12101,021.3,045.3,0.267,753.6,01.17,0.508
2016-01-30 00:18:00,1873E-3,5C000400,-0724,0834,12209,021.3,045.2,0.267,753.5,01.17,0.508
2016-01-30 00:19:00,1830E-3,5C000400,-0724,0834,12262,021.3,045.3,0.267,753.5,01.17,0.508
2016-01-30 00:20:00,1846E-3,5C000400,-0724,0834,12139,021.3,045.3,0.267,753.5,01.17,0.508
2016-01-30 00:21:00,1866E-3,5C000400,-0724,0834,12188,021.3,045.3,0.267,753.4,01.17,0.508
2016-01-30 00:22:00,1895E-3,5C000400,-0724,0834,12116,021.3,045.3,0.267,753.5,01.17,0.508
2016-01-30 00:23:00,1838E-3,5C000400,-0724,0834,12195,021.3,045.2,0.267,753.5,01.17,0.508
2016-01-30 00:24:00,2032E-3,5C000400,-0724,0834,12094,021.3,045.2,0.267,753.5,01.17,0.508
2016-01-30 00:25:00,2025E-3,5C000400,-0724,0834,12166,021.3,045.3,0.267,753.2,01.17,0.508
2016-01-30 00:26:00,1919E-3,5C000400,-0724,0833,12192,021.3,045.3,0.267,753.3,01.17,0.508
2016-01-30 00:27:00,1989E-3,5C000400,-0724,0834,12187,021.3,045.3,0.267,753.3,01.17,0.508
2016-01-30 00:28:00,2001E-3,5C000400,-0724,0834,12134,021.3,045.3,0.267,753.3,01.17,0.508
2016-01-30 00:29:00,1913E-3,5C000400,-0724,0833,12192,021.3,045.2,0.267,753.2,01.17,0.508
2016-01-30 00:30:00,1929E-3,5C000400,-0724,0833,12174,021.3,045.2,0.267,753.5,01.17,0.508
2016-01-30 00:31:00,1963E-3,5C000400,-0724,0834,12283,021.3,045.2,0.267,753.4,01.17,0.508
2016-01-30 00:32:00,1938E-3,5C000400,-0724,0834,12181,021.3,045.2,0.267,753.4,01.17,0.508
2016-01-30 00:33:00,1747E-3,5C000400,-0724,0834,12280,021.3,045.3,0.267,753.7,01.17,0.508
2016-01-30 00:34:00,1782E-3,5C000400,-0724,0834,12035,021.3,045.3,0.267,753.4,01.17,0.508
2016-01-30 00:35:00,1930E-3,5C000400,-0724,0833,11990,021.2,045.2,0.267,753.4,01.17,0.508
2016-01-30 00:36:00,2038E-3,5C000400,-0724,0834,12172,021.3,045.3,0.267,753.5,01.17,0.508
2016-01-30 00:37:00,1930E-3,5C000400,-0724,0833,12103,021.3,045.2,0.267,753.5,01.17,0.508
2016-01-30 00:38:00,1903E-3,5C000400,-0724,0833,12191,021.2,045.3,0.267,753.5,01.17,0.508
2016-01-30 00:39:00,1929E-3,5C000400,-0724,0834,12209,021.2,045.3,0.267,753.5,01.17,0.508
2016-01-30 00:40:00,1957E-3,5C000400,-0724,0834,12095,021.2,045.3,0.267,753.7,01.17,0.508
2016-01-30 00:41:00,2091E-3,5C000400,-0724,0834,12224,021.2,045.3,0.267,753.3,01.17,0.508
2016-01-30 00:42:00,1978E-3,5C000400,-0724,0835,12169,021.2,045.3,0.268,753.6,01.17,0.508
2016-01-30 00:43:00,2012E-3,5C000400,-0724,0834,12271,021.2,045.3,0.267,753.5,01.17,0.508
2016-01-30 00:44:00,1788E-3,5C000400,-0724,0834,12123,021.2,045.3,0.268,753.6,01.17,0.508
2016-01-30 00:45:00,2014E-3,5C000400,-0724,0834,12156,021.2,045.2,0.267,753.7,01.17,0.508
2016-01-30 00:46:00,1968E-3,5C000400,-0724,0834,12129,021.2,045.3,0.267,753.6,01.17,0.508
2016-01-30 00:47:00,1832E-3,5C000400,-0724,0835,12107,021.2,045.3,0.268,753.4,01.17,0.508
2016-01-30 00:48:00,1909E-3,5C000400,-0724,0834,12173,021.2,045.3,0.267,753.5,01.17,0.508
2016-01-30 00:49:00,2032E-3,5C000400,-0724,0834,12088,021.2,045.2,0.267,753.4,01.17,0.508
2016-01-30 00:50:00,1963E-3,5C000400,-0724,0834,12207,021.1,045.3,0.267,753.4,01.17,0.508
2016-01-30 00:51:00,1904E-3,5C000400,-0724,0834,12180,021.2,045.2,0.267,753.6,01.17,0.508
2016-01-30 00:52:00,1940E-3,5C000400,-0724,0834,12151,021.2,045.2,0.267,753.4,01.17,0.508
2016-01-30 00:53:00,2004E-3,5C000400,-0724,0834,12071,021.1,045.2,0.267,753.4,01.17,0.508
2016-01-30 00:54:00,1967E-3,5C000400,-0724,0834,12188,021.1,045.3,0.267,753.6,01.17,0.508
2016-01-30 00:55:00,1779E-3,5C000400,-0724,0834,12042,021.2,045.3,0.267,753.4,01.17,0.508
2016-01-30 00:56:00,1955E-3,5C000400,-0724,0834,12252,021.2,045.2,0.267,753.5,01.17,0.508
2016-01-30 00:57:00,2026E-3,5C000400,-0724,0834,12184,021.1,045.3,0.267,753.5,01.17,0.508
2016-01-30 00:58:00,2068E-3,5C000400,-0724,0834,12273,021.1,045.2,0.268,753.5,01.17,0.508
2016-01-30 00:59:00,1993E-3,5C000400,-0724,0833,12272,021.1,045.2,0.267,753.4,01.17,0.508
2016-01-30 01:00:00,1931E-3,5C000400,-0724,0833,12214,021.1,045.3,0.268,753.7,01.17,0.508
2016-01-30 01:01:00,1905E-3,5C000400,-0724,0834,12181,021.1,045.3,0.267,753.7,01.17,0.508
2016-01-30 01:02:00,2020E-3,5C000400,-0724,0834,12159,021.1,045.2,0.268,753.7,01.17,0.508
2016-01-30 01:03:00,1964E-3,5C000400,-0724,0834,12172,021.1,045.3,0.267,753.6,01.17,0.508
2016-01-30 01:04:00,1880E-3,5C000400,-0724,0834,12200,021.1,045.3,0.268,753.6,01.17,0.508
2016-01-30 01:05:00,1879E-3,5C000400,-0724,0834,12231,021.1,045.3,0.267,753.8,01.17,0.508
2016-01-30 01:06:00,2081E-3,5C000400,-0724,0833,12138,021.1,045.3,0.268,753.5,01.17,0.508
2016-01-30 01:07:00,1952E-3,5C000400,-0724,0834,12089,021.1,045.3,0.267,753.6,01.17,0.508
2016-01-30 01:08:00,1826E-3,5C000400,-0724,0834,12022,021.1,045.3,0.267,753.5,01.17,0.508
2016-01-30 01:09:00,1918E-3,5C000400,-0724,0833,12215,021.1,045.3,0.267,753.5,01.17,0.508
2016-01-30 01:10:00,1977E-3,5C000400,-0724,0834,12133,021.1,045.3,0.268,753.5,01.17,0.508
2016-01-30 01:11:00,1786E-3,5C000400,-0724,0834,12198,021.1,045.2,0.268,753.4,01.17,0.508
2016-01-30 01:12:00,1797E-3,5C000400,-0724,0834,12078,021.1,045.2,0.267,753.3,01.17,0.508
2016-01-30 01:13:00,2039E-3,5C000400,-0724,0834,12214,021.0,045.2,0.268,753.3,01.17,0.508
2016-01-30 01:14:00,1836E-3,5C000400,-0724,0834,12228,021.1,045.2,0.267,753.5,01.17,0.508
2016-01-30 01:15:00,1906E-3,5C000400,-0724,0833,12069,021.1,045.2,0.268,753.2,01.17,0.508
2016-01-30 01:16:00,1859E-3,5C000400,-0724,0833,12250,021.1,045.3,0.267,753.2,01.17,0.508
2016-01-30 01:17:00,2134E-3,5C000400,-0724,0834,12197,021.0,045.3,0.268,753.3,01.17,0.508
2016-01-30 01:18:00,1949E-3,5C000400,-0724,0834,12160,021.0,045.3,0.267,753.3,01.17,0.508
2016-01-30 01:19:00,1975E-3,5C000400,-0724,0833,12125,021.0,045.2,0.268,753.4,01.17,0.508
2016-01-30 01:20:00,1922E-3,5C000400,-0724,0834,12105,021.0,045.3,0.268,753.5,01.17,0.508
2016-01-30 01:21:00,1852E-3,5C000400,-0724,0834,12090,021.0,045.2,0.268,753.4,01.17,0.508
2016-01-30 01:22:00,1912E-3,5C000400,-0724,0834,12066,021.0,045.2,0.268,753.6,01.17,0.508
2016-01-30 01:23:00,1906E-3,5C000400,-0724,0834,12249,021.0,045.2,0.267,753.5,01.17,0.508
2016-01-30 01:24:00,1884E-3,5C000400,-0724,0833,12105,021.0,045.2,0.268,753.7,01.17,0.508
2016-01-30 01:25:00,2003E-3,5C000400,-0724,0833,12091,021.0,045.2,0.268,753.5,01.17,0.508
2016-01-30 01:26:00,1967E-3,5C000400,-0724,0834,12117,021.0,045.2,0.267,753.7,01.17,0.508
2016-01-30 01:27:00,1762E-3,5C000400,-0724,0833,12179,021.0,045.3,0.268,753.8,01.17,0.508
2016-01-30 01:28:00,2010E-3,5C000400,-0724,0833,12123,021.0,045.2,0.267,753.8,01.17,0.508
2016-01-30 01:29:00,1976E-3,5C000400,-0724,0834,12313,021.0,045.3,0.268,753.5,01.17,0.508
2016-01-30 01:30:00,1886E-3,5C000400,-0724,0835,12212,020.9,045.3,0.268,753.4,01.17,0.508
2016-01-30 01:31:00,2050E-3,5C000400,-0724,0834,12102,021.0,045.3,0.267,753.2,01.17,0.508
2016-01-30 01:32:00,1923E-3,5C000400,-0724,0833,12150,021.0,045.3,0.268,753.2,01.17,0.508
2016-01-30 01:33:00,1927E-3,5C000400,-0724,0835,12283,020.9,045.3,0.268,753.0,01.17,0.508
2016-01-30 01:34:00,1917E-3,5C000400,-0724,0834,12324,020.9,045.3,0.267,753.0,01.17,0.508
2016-01-30 01:35:00,1844E-3,5C000400,-0724,0834,12258,020.9,045.2,0.268,753.3,01.17,0.508
2016-01-30 01:36:00,1775E-3,5C000400,-0724,0833,12122,021.0,045.2,0.268,753.4,01.17,0.508
2016-01-30 01:37:00,1904E-3,5C000400,-0724,0834,12188,020.9,045.3,0.267,753.6,01.17,0.508
2016-01-30 01:38:00,1900E-3,5C000400,-0724,0834,12239,020.9,045.2,0.268,753.5,01.17,0.508
2016-01-30 01:39:00,1972E-3,5C000400,-0724,0833,12151,020.9,045.2,0.268,753.5,01.17,0.508
2016-01-30 01:40:00,1950E-3,5C000400,-0724,0835,12055,020.9,045.2,0.268,753.7,01.17,0.508
2016-01-30 01:41:00,1799E-3,5C000400,-0724,0834,12174,021.0,045.2,0.267,753.5,01.17,0.508
2016-01-30 01:42:00,1864E-3,5C000400,-0724,0833,12131,020.9,045.2,0.268,753.5,01.17,0.508
2016-01-30 01:43:00,1940E-3,5C000400,-0724,0835,12217,020.9,045.3,0.268,753.2,01.17,0.508
2016-01-30 01:44:00,1983E-3,5C000400,-0724,0834,12197,020.9,045.3,0.268,753.3,01.17,0.508
2016-01-30 01:45:00,1777E-3,5C000400,-0724,0834,12252,020.9,045.3,0.268,753.4,01.17,0.508
2016-01-30 01:46:00,1958E-3,5C000400,-0724,0834,12232,020.9,045.3,0.268,753.4,01.17,0.508
2016-01-30 01:47:00,1744E-3,5C000400,-0724,0834,12257,020.9,045.2,0.268,753.3,01.17,0.508
2016-01-30 01:48:00,2035E-3,5C000400,-0724,0834,12291,020.9,045.2,0.268,753.6,01.17,0.508
2016-01-30 01:49:00,1957E-3,5C000400,-0724,0834,12059,020.9,045.2,0.268,753.6,01.17,0.508
2016-01-30 01:50:00,2047E-3,5C000400,-0724,0834,11902,020.9,045.2,0.268,753.5,01.17,0.508
2016-01-30 01:51:00,2044E-3,5C000400,-0724,0834,12174,020.9,045.3,0.268,753.6,01.17,0.508
2016-01-30 01:52:00,1940E-3,5C000400,-0724,0834,12093,020.9,045.2,0.268,753.7,01.17,0.508
2016-01-30 01:53:00,1861E-3,5C000400,-0724,0834,12115,020.9,045.3,0.268,753.6,01.17,0.508
2016-01-30 01:54:00,1787E-3,5C000400,-0724,0834,12181,020.9,045.3,0.268,753.7,01.17,0.508
2016-01-30 01:55:00,2047E-3,5C000400,-0724,0833,12163,020.9,045.3,0.268,753.6,01.17,0.508
2016-01-30 01:56:00,1951E-3,5C000400,-0724,0834,12196,020.8,045.2,0.268,753.6,01.17,0.508
2016-01-30 01:57:00,2000E-3,5C000400,-0724,0835,12177,020.8,045.2,0.268,753.5,01.17,0.508
2016-01-30 01:58:00,1895E-3,5C000400,-0724,0833,12108,020.9,045.2,0.268,753.4,01.17,0.508
2016-01-30 01:59:00,1912E-3,5C000400,-0724,0833,12157,020.8,045.2,0.268,753.6,01.17,0.508
2016-01-30 02:00:00,1944E-3,5C000400,-0724,0835,12236,020.8,045.2,0.268,753.5,01.17,0.508
2016-01-30 02:01:00,1915E-3,5C000400,-0724,0834,12184,020.8,045.3,0.268,753.5,01.17,0.508
2016-01-30 02:02:00,1934E-3,5C000400,-0724,0834,12184,020.8,045.3,0.268,753.6,01.17,0.508
2016-01-30 02:03:00,1798E-3,5C000400,-0724,0834,12082,020.8,045.2,0.268,753.5,01.17,0.508
2016-01-30 02:04:00,1877E-3,5C000400,-0724,0834,12130,020.8,045.2,0.268,753.5,01.17,0.508
2016-01-30 02:05:00,1796E-3,5C000400,-0724,0834,12177,020.8,045.2,0.268,753.4,01.17,0.508
2016-01-30 02:06:00,1755E-3,5C000400,-0724,0834,12257,020.8,045.2,0.268,753.7,01.17,0.508
2016-01-30 02:07:00,1925E-3,5C000400,-0724,0834,12219,020.8,045.2,0.268,753.4,01.17,0.508
2016-01-30 02:08:00,1860E-3,5C000400,-0724,0833,12107,020.8,045.2,0.268,753.4,01.17,0.508
2016-01-30 02:09:00,1914E-3,5C000400,-0724,0834,11983,020.8,045.3,0.268,753.4,01.17,0.508
2016-01-30 02:10:00,1918E-3,5C000400,-0724,0833,12194,020.8,045.2,0.268,753.3,01.17,0.508
2016-01-30 02:11:00,1944E-3,5C000400,-0724,0834,12217,020.8,045.3,0.268,753.4,01.17,0.508
2016-01-30 02:12:00,1826E-3,5C000400,-0724,0834,12043,020.8,045.2,0.268,753.5,01.17,0.508
2016-01-30 02:13:00,1883E-3,5C000400,-0724,0834,12097,020.8,045.2,0.268,753.5,01.17,0.508
2016-01-30 02:14:00,1965E-3,5C000400,-0724,0833,12204,020.8,045.2,0.268,753.2,01.17,0.508
2016-01-30 02:15:00,1908E-3,5C000400,-0724,0833,12209,020.8,045.2,0.268,753.3,01.17,0.508
2016-01-30 02:16:00,1927E-3,5C000400,-0724,0834,12041,020.8,045.3,0.268,753.6,01.17,0.508
2016-01-30 02:17:00,1869E-3,5C000400,-0724,0834,12230,020.8,045.3,0.268,753.4,01.17,0.508
2016-01-30 02:18:00,1871E-3,5C000400,-0724,0833,12109,020.8,045.3,0.268,753.4,01.17,0.508
2016-01-30 02:19:00,1873E-3,5C000400,-0724,0833,12231,020.8,045.3,0.268,753.6,01.17,0.508
2016-01-30 02:20:00,1823E-3,5C000400,-0724,0833,12207,020.7,045.3,0.268,753.4,01.17,0.508
2016-01-30 02:21:00,1848E-3,5C000400,-0724,0833,12036,020.7,045.2,0.268,753.2,01.17,0.508
2016-01-30 02:22:00,2007E-3,5C000400,-0724,0834,12167,020.8,045.3,0.268,753.3,01.17,0.508
2016-01-30 02:23:00,1917E-3,5C000400,-0724,0834,12172,020.7,045.2,0.268,753.2,01.17,0.508
2016-01-30 02:24:00,1819E-3,5C000400,-0724,0833,12266,020.8,045.2,0.268,753.3,01.17,0.508
2016-01-30 02:25:00,1976E-3,5C000400,-0724,0833,12247,020.7,045.2,0.268,753.4,01.17,0.508
2016-01-30 02:26:00,1890E-3,5C000400,-0724,0834,12152,020.7,045.2,0.268,753.5,01.17,0.508
2016-01-30 02:27:00,2070E-3,5C000400,-0724,0834,12364,020.7,045.2,0.268,753.5,01.17,0.508
2016-01-30 02:28:00,1761E-3,5C000400,-0724,0834,12236,020.7,045.2,0.268,753.5,01.17,0.508
2016-01-30 02:29:00,1912E-3,5C000400,-0724,0834,12263,020.7,045.3,0.268,753.6,01.17,0.508
2016-01-30 02:30:00,1940E-3,5C000400,-0724,0834,12158,020.7,045.3,0.268,753.3,01.17,0.508
2016-01-30 02:31:00,1955E-3,5C000400,-0724,0833,12031,020.7,045.2,0.268,753.4,01.17,0.508
2016-01-30 02:32:00,1854E-3,5C000400,-0724,0835,12267,020.7,045.2,0.268,753.7,01.17,0.508
2016-01-30 02:33:00,1944E-3,5C000400,-0724,0833,12060,020.7,045.2,0.268,753.4,01.17,0.508
2016-01-30 02:34:00,1953E-3,5C000400,-0724,0834,12242,020.7,045.2,0.268,753.5,01.17,0.508
2016-01-30 02:35:00,1802E-3,5C000400,-0724,0834,12229,020.7,045.3,0.268,753.5,01.17,0.508
2016-01-30 02:36:00,1859E-3,5C000400,-0724,0834,12083,020.7,045.2,0.268,753.5,01.17,0.508
2016-01-30 02:37:00,1848E-3,5C000400,-0724,0834,12128,020.7,045.2,0.268,753.7,01.17,0.508
2016-01-30 02:38:00,1916E-3,5C000400,-0724,0834,12217,020.7,045.2,0.268,753.5,01.17,0.508
2016-01-30 02:39:00,1989E-3,5C000400,-0724,0833,12113,020.7,045.2,0.268,753.6,01.17,0.508
2016-01-30 02:40:00,1815E-3,5C000400,-0724,0833,12061,020.7,045.2,0.268,753.6,01.17,0.508
2016-01-30 02:41:00,2039E-3,5C000400,-0724,0833,12144,020.7,045.2,0.268,753.5,01.17,0.508
2016-01-30 02:42:00,2051E-3,5C000400,-0724,0833,12141,020.7,045.3,0.268,753.4,01.17,0.508
2016-01-30 02:43:00,1968E-3,5C000400,-0724,0834,12267,020.7,045.2,0.268,753.5,01.17,0.508
2016-01-30 02:44:00,1883E-3,5C000400,-0724,0833,12082,020.7,045.2,0.269,753.5,01.17,0.508
2016-01-30 02:45:00,1888E-3,5C000400,-0724,0834,12209,020.7,045.2,0.268,753.7,01.17,0.508
2016-01-30 02:46:00,1929E-3,5C000400,-0724,0834,12138,020.7,045.2,0.268,753.7,01.17,0.508
2016-01-30 02:47:00,1920E-3,5C000400,-0724,0834,12267,020.7,045.2,0.268,753.6,01.17,0.508
2016-01-30 02:48:00,1948E-3,5C000400,-0724,0834,12186,020.7,045.2,0.268,753.7,01.17,0.508
2016-01-30 02:49:00,1861E-3,5C000400,-0724,0834,12251,020.7,045.3,0.268,753.8,01.17,0.508
2016-01-30 02:50:00,1943E-3,5C000400,-0724,0834,12065,020.7,045.3,0.268,753.8,01.17,0.508
2016-01-30 02:51:00,1972E-3,5C000400,-0724,0834,12143,020.6,045.3,0.268,753.7,01.17,0.508
2016-01-30 02:52:00,1890E-3,5C000400,-0724,0834,12219,020.6,045.2,0.268,753.8,01.17,0.508
2016-01-30 02:53:00,1833E-3,5C000400,-0724,0833,12072,020.6,045.3,0.269,754.0,01.17,0.508
2016-01-30 02:54:00,1822E-3,5C000400,-0724,0834,12044,020.7,045.3,0.268,753.9,01.17,0.508
2016-01-30 02:55:00,1826E-3,5C000400,-0724,0834,12016,020.6,045.3,0.268,754.0,01.17,0.508
2016-01-30 02:56:00,1892E-3,5C000400,-0724,0834,12186,020.6,045.2,0.268,754.0,01.17,0.508
2016-01-30 02:57:00,1905E-3,5C000400,-0724,0834,12207,020.6,045.2,0.268,753.9,01.17,0.508
2016-01-30 02:58:00,1860E-3,5C000400,-0724,0834,12107,020.6,045.2,0.268,753.9,01.17,0.508
2016-01-30 02:59:00,1923E-3,5C000400,-0724,0834,12219,020.6,045.2,0.268,753.8,01.17,0.508
2016-01-30 03:00:00,1777E-3,5C000400,-0724,0834,12007,020.6,045.3,0.268,753.6,01.17,0.508
2016-01-30 03:01:00,1828E-3,5C000400,-0724,0834,12043,020.6,045.2,0.268,753.6,01.17,0.508
2016-01-30 03:02:00,1830E-3,5C000400,-0724,0834,12218,020.6,045.2,0.268,753.6,01.17,0.508
2016-01-30 03:03:00,1898E-3,5C000400,-0724,0834,12137,020.6,045.2,0.268,753.6,01.17,0.508
2016-01-30 03:04:00,1716E-3,5C000400,-0724,0833,12265,020.6,045.3,0.268,753.6,01.17,0.508
2016-01-30 03:05:00,1876E-3,5C000400,-0724,0833,12131,020.6,045.2,0.268,753.6,01.17,0.508
2016-01-30 03:06:00,1899E-3,5C000400,-0724,0834,12152,020.6,045.2,0.268,753.7,01.17,0.508
2016-01-30 03:07:00,1816E-3,5C000400,-0724,0834,12180,020.6,045.2,0.268,753.4,01.17,0.508
2016-01-30 03:08:00,1808E-3,5C000400,-0724,0834,12222,020.6,045.2,0.268,753.7,01.17,0.508
2016-01-30 03:09:00,1861E-3,5C000400,-0724,0834,12111,020.6,045.2,0.268,753.9,01.17,0.508
2016-01-30 03:10:00,1985E-3,5C000400,-0724,0834,12275,020.6,045.2,0.268,753.9,01.17,0.508
2016-01-30 03:11:00,1809E-3,5C000400,-0724,0833,12256,020.6,045.3,0.268,753.8,01.17,0.508
2016-01-30 03:12:00,1953E-3,5C000400,-0724,0833,12191,020.6,045.2,0.268,753.9,01.17,0.508
2016-01-30 03:13:00,1888E-3,5C000400,-0724,0835,12040,020.6,045.2,0.268,753.8,01.17,0.508
2016-01-30 03:14:00,1955E-3,5C000400,-0724,0833,12189,020.6,045.2,0.269,754.0,01.17,0.508
2016-01-30 03:15:00,1949E-3,5C000400,-0724,0834,12301,020.6,045.2,0.268,754.0,01.17,0.508
2016-01-30 03:16:00,1980E-3,5C000400,-0724,0834,12231,020.6,045.3,0.268,753.9,01.17,0.508
2016-01-30 03:17:00,1885E-3,5C000400,-0724,0834,12165,020.6,045.3,0.268,754.0,01.17,0.508
2016-01-30 03:18:00,1789E-3,5C000400,-0724,0834,12117,020.6,045.2,0.268,753.8,01.17,0.508
2016-01-30 03:19:00,1919E-3,5C000400,-0724,0833,12239,020.6,045.2,0.268,753.9,01.17,0.508
2016-01-30 03:20:00,2027E-3,5C000400,-0724,0833,12332,020.6,045.2,0.268,753.8,01.17,0.508
2016-01-30 03:21:00,1923E-3,5C000400,-0724,0831,12258,020.6,045.2,0.268,753.8,01.17,0.508
2016-01-30 03:22:00,1924E-3,5C000400,-0724,0833,12259,020.6,045.2,0.268,753.7,01.17,0.508
2016-01-30 03:23:00,1987E-3,5C000400,-0724,0832,12235,020.6,045.2,0.268,753.6,01.17,0.508
2016-01-30 03:24:00,1884E-3,5C000400,-0724,0833,12154,020.6,045.3,0.269,753.6,01.17,0.508
2016-01-30 03:25:00,1987E-3,5C000400,-0724,0832,11986,020.6,045.2,0.268,753.7,01.17,0.508
2016-01-30 03:26:00,1851E-3,5C000400,-0724,0834,12080,020.6,045.2,0.268,753.4,01.17,0.508
2016-01-30 03:27:00,1821E-3,5C000400,-0724,0833,12211,020.6,045.2,0.268,753.5,01.17,0.508
2016-01-30 03:28:00,1946E-3,5C000400,-0724,0833,12265,020.6,045.2,0.268,753.6,01.17,0.508
2016-01-30 03:29:00,1895E-3,5C000400,-0724,0833,12209,020.6,045.3,0.269,753.4,01.17,0.508
2016-01-30 03:30:00,2003E-3,5C000400,-0724,0833,12097,020.6,045.3,0.268,753.5,01.17,0.508
2016-01-30 03:31:00,1904E-3,5C000400,-0724,0834,12122,020.5,045.3,0.268,753.4,01.17,0.508
2016-01-30 03:32:00,1804E-3,5C000400,-0724,0833,12204,020.5,045.2,0.268,753.5,01.17,0.508
2016-01-30 03:33:00,1919E-3,5C000400,-0724,0833,12133,020.5,045.2,0.268,753.3,01.17,0.508
2016-01-30 03:34:00,1852E-3,5C000400,-0724,0833,12167,020.6,045.2,0.268,753.3,01.17,0.508
2016-01-30 03:35:00,1878E-3,5C000400,-0724,0834,12045,020.6,045.2,0.268,753.6,01.17,0.508
2016-01-30 03:36:00,1823E-3,5C000400,-0724,0833,12228,020.5,045.2,0.268,753.6,01.17,0.508
2016-01-30 03:37:00,2011E-3,5C000400,-0724,0833,12245,020.5,045.2,0.269,753.6,01.17,0.508
2016-01-30 03:38:00,1792E-3,5C000400,-0724,0834,12189,020.5,045.2,0.269,753.6,01.17,0.508
2016-01-30 03:39:00,2064E-3,5C000400,-0724,0834,12104,020.5,045.2,0.269,753.8,01.17,0.508
2016-01-30 03:40:00,1859E-3,5C000400,-0724,0833,12209,020.5,045.2,0.269,753.8,01.17,0.508
2016-01-30 03:41:00,1944E-3,5C000400,-0724,0834,12187,020.5,045.2,0.269,753.8,01.17,0.508
2016-01-30 03:42:00,1850E-3,5C000400,-0724,0832,12072,020.5,045.2,0.269,753.8,01.17,0.508
2016-01-30 03:43:00,1932E-3,5C000400,-0724,0833,12066,020.5,045.2,0.269,753.9,01.17,0.508
2016-01-30 03:44:00,1870E-3,5C000400,-0724,0833,12016,020.5,045.3,0.269,753.7,01.17,0.508
2016-01-30 03:45:00,1898E-3,5C000400,-0724,0834,12275,020.5,045.2,0.268,753.9,01.17,0.508
2016-01-30 03:46:00,1847E-3,5C000400,-0724,0833,12240,020.5,045.2,0.268,753.8,01.17,0.508
2016-01-30 03:47:00,1856E-3,5C000400,-0724,0834,12213,020.5,045.3,0.268,753.8,01.17,0.508
2016-01-30 03:48:00,1889E-3,5C000400,-0724,0834,12131,020.5,045.2,0.268,753.8,01.17,0.508
2016-01-30 03:49:00,1984E-3,5C000400,-0724,0834,12248,020.5,045.3,0.268,753.7,01.17,0.508
2016-01-30 03:50:00,1888E-3,5C000400,-0724,0833,12130,020.5,045.2,0.269,753.8,01.17,0.508
2016-01-30 03:51:00,1802E-3,5C000400,-0724,0833,12187,020.5,045.2,0.269,753.8,01.17,0.508
2016-01-30 03:52:00,1801E-3,5C000400,-0724,0833,12155,020.5,045.2,0.269,753.8,01.17,0.508
2016-01-30 03:53:00,2006E-3,5C000400,-0724,0833,12093,020.5,045.2,0.268,753.8,01.17,0.508
2016-01-30 03:54:00,1855E-3,5C000400,-0724,0833,12158,020.5,045.2,0.268,753.7,01.17,0.508
2016-01-30 03:55:00,1823E-3,5C000400,-0724,0833,12097,020.5,045.2,0.268,753.8,01.17,0.508
2016-01-30 03:56:00,1883E-3,5C000400,-0724,0833,12177,020.5,045.3,0.268,753.8,01.17,0.508
2016-01-30 03:57:00,2001E-3,5C000400,-0724,0833,12236,020.5,045.3,0.268,753.7,01.17,0.508
2016-01-30 03:58:00,1947E-3,5C000400,-0724,0834,12165,020.5,045.2,0.268,753.8,01.17,0.508
2016-01-30 03:59:00,1858E-3,5C000400,-0724,0834,12101,020.5,045.3,0.269,753.7,01.17,0.508
2016-01-30 04:00:00,1904E-3,5C000400,-0724,0833,12152,020.5,045.2,0.268,753.6,01.17,0.508
2016-01-30 04:01:00,1828E-3,5C000400,-0724,0834,12139,020.5,045.2,0.268,753.7,01.17,0.508
2016-01-30 04:02:00,1886E-3,5C000400,-0724,0833,12122,020.5,045.3,0.268,753.7,01.17,0.508
2016-01-30 04:03:00,1958E-3,5C000400,-0724,0834,12281,020.5,045.2,0.269,753.9,01.17,0.508
2016-01-30 04:04:00,1951E-3,5C000400,-0724,0833,12089,020.5,045.2,0.269,754.1,01.17,0.508
2016-01-30 04:05:00,1912E-3,5C000400,-0724,0834,12206,020.5,045.2,0.269,754.1,01.17,0.508
2016-01-30 04:06:00,1908E-3,5C000400,-0724,0833,12081,020.5,045.2,0.269,754.1,01.17,0.508
2016-01-30 04:07:00,1838E-3,5C000400,-0724,0833,12042,020.5,045.2,0.269,754.0,01.17,0.508
2016-01-30 04:08:00,1956E-3,5C000400,-0724,0834,12299,020.5,045.2,0.269,754.0,01.17,0.508
2016-01-30 04:09:00,1910E-3,5C000400,-0724,0834,12223,020.5,045.2,0.268,754.1,01.17,0.508
2016-01-30 04:10:00,1927E-3,5C000400,-0724,0834,12223,020.5,045.2,0.268,754.1,01.17,0.508
2016-01-30 04:11:00,1804E-3,5C000400,-0724,0834,12166,020.5,045.2,0.269,754.1,01.17,0.508
2016-01-30 04:12:00,1976E-3,5C000400,-0724,0834,12167,020.5,045.2,0.269,754.1,01.17,0.508
2016-01-30 04:13:00,1787E-3,5C000400,-0724,0833,12072,020.5,045.2,0.269,754.1,01.17,0.508
2016-01-30 04:14:00,1908E-3,5C000400,-0724,0833,12244,020.5,045.2,0.268,753.9,01.17,0.508
2016-01-30 04:15:00,1970E-3,5C000400,-0724,0833,12227,020.5,045.2,0.268,753.9,01.17,0.508
2016-01-30 04:16:00,1912E-3,5C000400,-0724,0833,12239,020.5,045.2,0.269,753.9,01.17,0.508
2016-01-30 04:17:00,1892E-3,5C000400,-0724,0834,12205,020.5,045.3,0.269,753.8,01.17,0.508
2016-01-30 04:18:00,1996E-3,5C000400,-0724,0834,12094,020.5,045.2,0.268,753.9,01.17,0.508
2016-01-30 04:19:00,1905E-3,5C000400,-0724,0833,12203,020.5,045.2,0.268,754.0,01.17,0.508
2016-01-30 04:20:00,2016E-3,5C000400,-0724,0833,12254,020.5,045.2,0.269,753.8,01.17,0.508